[[{"header":{"parameterUnit":"m.s-1","parameterCategory":1,"la1":30.2991,"la2":30.254,"lo1":-89.0895,"lo2":-89.0444,"dy":0.0017,"dx":0.0017,"nx":28,"ny":28,"refTime":"2024-02-17T09:00:00:Z","depth":0,"parameterNumber":2,"parameterNumberName":"U-component_of_WINDS"},"data":[0,0,0,0,0,0,0,0,0,0,0,0,0,0,0,0,0,0,0,0,0,0,0,0,0,0,0,0,0,0,0,0,0,0,0,0,0,0,0,0,0,0,0,0,0,0,0,0,0,0,0,0,0,0,0,0,0,0,-1.4758,-1.4758,0,-1.483,-1.4831,-1.4831,-1.4788,-1.4786,-1.4784,-1.4782,-1.4857,-1.4861,-1.4865,0,0,0,0,0,0,0,0,0,0,0,0,0,-1.4583,-1.4587,-1.4758,-1.4759,-1.4759,-1.483,-1.4831,-1.4832,-1.4789,-1.4786,-1.4784,-1.4781,-1.4856,-1.4861,-1.4866,0,0,0,0,0,0,0,0,0,0,0,0,0,-1.4658,-1.4588,-1.4757,-1.4746,-1.4746,-1.4829,-1.4831,-1.4832,-1.4789,-1.4786,-1.4783,-1.478,-1.4855,-1.486,-1.4866,-1.4965,0,0,-1.4884,-1.4887,0,0,0,0,0,0,0,0,-1.4653,-1.4664,-1.4747,-1.4747,-1.4747,-1.4797,-1.4797,-1.4877,-1.479,-1.4773,-1.4782,-1.4778,-1.484,-1.4847,-1.4867,-1.4968,-1.4972,-1.4885,-1.4888,-1.4891,-1.4893,0,0,0,0,0,0,0,-1.4648,-1.4661,-1.4786,-1.4748,-1.4748,-1.4738,-1.4745,-1.4812,-1.4823,-1.4774,-1.4771,-1.478,-1.4839,-1.4862,-1.4869,-1.4973,-1.4885,-1.489,-1.4893,-1.4896,-1.5158,-1.5162,0,0,0,0,0,0,-1.4644,-1.4657,-1.4784,-1.4788,-1.4692,-1.4744,-1.4752,-1.4784,-1.4822,-1.4825,-1.4783,-1.4778,-1.4853,-1.4862,-1.4871,-1.499,-1.4891,-1.4896,-1.49,-1.5155,-1.5159,-1.5163,0,0,0,0,0,0,-1.464,-1.4656,-1.4781,-1.4722,-1.4737,-1.475,-1.4787,-1.4787,-1.4809,-1.4829,-1.4831,-1.4804,-1.4851,-1.4863,-1.4942,-1.4992,-1.4899,-1.4904,-1.5151,-1.5156,-1.5161,-1.5227,0,0,0,0,0,0,-1.4635,-1.4655,-1.4692,-1.4723,-1.474,-1.4851,-1.479,-1.4791,-1.482,-1.4814,-1.4849,-1.4851,-1.4849,-1.4933,-1.4948,-1.4998,-1.4909,-1.5146,-1.5153,-1.5159,-1.5221,-1.5234,-1.5245,0,0,0,0,0,-1.4629,-1.4708,-1.4694,-1.471,-1.4788,-1.4854,-1.4863,-1.4859,-1.4824,-1.4862,-1.4874,-1.485,-1.4983,-1.4942,-1.4958,-1.5011,-1.5143,-1.5151,-1.5159,-1.5215,-1.5231,-1.5245,0,0,0,0,0,0,-1.4684,-1.4712,-1.4697,-1.4788,-1.4819,-1.4846,-1.4894,-1.4877,-1.4918,-1.4911,-1.4904,-1.4912,-1.4995,-1.501,-1.4963,-1.5108,-1.5058,-1.5069,-1.5095,-1.5111,-1.5123,-1.5118,-1.4914,0,0,0,0,0,-1.4707,-1.4758,-1.4779,-1.4858,-1.4874,-1.4881,-1.491,-1.4904,-1.4935,-1.4948,-1.4966,-1.4998,-1.5047,-1.5079,-1.5125,-1.5222,-1.5229,-1.5266,-1.5278,-1.5288,-1.5299,-1.5351,-1.5368,-1.5188,-1.5188,-1.5188,0,0,-1.4754,-1.4776,-1.4809,-1.487,-1.4892,-1.4946,-1.4893,-1.4951,-1.4991,-1.4957,-1.5033,-1.5047,-1.5082,-1.517,-1.521,-1.5186,-1.535,-1.5298,-1.5306,-1.5311,-1.5361,-1.5378,-1.5393,-1.5193,-1.5192,-1.5192,0,0,-1.4869,-1.489,-1.4957,-1.4981,-1.5016,-1.502,-1.5036,-1.5066,-1.5074,-1.515,-1.5126,-1.5172,-1.5257,-1.5282,-1.5307,-1.5429,-1.5409,-1.5444,-1.5509,-1.556,-1.5575,-1.5587,-1.5632,-1.5648,-1.5454,-1.5454,-1.5454,0,-1.4924,-1.5003,-1.4995,-1.5055,-1.5083,-1.5053,-1.5122,-1.5146,-1.5194,-1.5214,-1.5185,-1.529,-1.5311,-1.5405,-1.5435,-1.5455,-1.5474,-1.5441,-1.5573,-1.5586,-1.5597,-1.564,-1.5656,-1.5458,-1.5458,-1.5457,-1.5457,0,-1.5069,-1.5124,-1.5175,-1.5222,-1.5254,-1.5319,-1.5321,-1.5355,-1.5345,-1.5353,-1.543,-1.5454,-1.5504,-1.5526,-1.5517,-1.5619,-1.5602,-1.5574,-1.5524,-1.5619,-1.5658,-1.5675,-1.5464,-1.5463,-1.5461,-1.546,0,0,-1.5222,-1.5262,-1.5281,-1.5302,-1.5338,-1.538,-1.5443,-1.5492,-1.5521,-1.5555,-1.5608,-1.5679,-1.5652,-1.568,-1.5674,-1.5718,-1.5814,-1.5684,-1.5685,-1.5709,-1.5928,-1.5951,-1.597,-1.58,-1.5803,-1.5806,-1.5926,0,-1.5339,-1.5449,-1.5443,-1.5546,-1.5597,-1.5569,-1.5623,-1.5651,-1.5659,-1.5703,-1.5711,-1.5763,-1.5723,-1.5739,-1.5782,-1.5794,-1.5859,-1.5785,-1.585,-1.5853,-1.5844,-1.599,-1.6015,-1.6127,-1.5941,-1.5944,-1.5945,0,-1.5492,-1.553,-1.5638,-1.5665,-1.5686,-1.5736,-1.578,-1.5822,-1.5853,-1.5855,-1.5885,-1.5871,-1.5934,-1.5881,-1.5968,-1.5918,-1.5944,-1.5954,-1.5958,-1.5965,-1.5906,-1.6003,-1.6162,-1.618,-1.597,-1.5968,-1.5966,0,-1.5594,-1.5672,-1.5747,-1.5766,-1.5799,-1.5835,-1.585,-1.5878,-1.5907,-1.5945,-1.5964,-1.6009,-1.6034,-1.6069,-1.6068,-1.6029,-1.6157,-1.6103,-1.6161,-1.6161,-1.6191,-1.619,-1.6358,-1.6205,-1.6205,-1.6205,-1.6204,0,-1.5727,-1.5794,-1.5794,-1.584,-1.5914,-1.5906,-1.598,-1.5992,-1.6016,-1.6064,-1.6042,-1.6088,-1.6082,-1.6128,-1.6127,-1.62,-1.6211,-1.6215,-1.6214,-1.6218,-1.6218,-1.6237,-1.6229,-1.6209,-1.6208,-1.6207,-1.6206,0,-1.5855,-1.5857,-1.5937,-1.5961,-1.5969,-1.6023,-1.6044,-1.6088,-1.6093,-1.6154,-1.6168,-1.6176,-1.6229,-1.623,-1.629,-1.629,-1.6379,-1.6369,-1.6369,-1.6367,-1.6426,-1.6421,-1.6614,-1.6639,-1.6468,-1.647,-1.6471,0,-1.594,-1.5991,-1.6021,-1.6052,-1.6069,-1.6118,-1.6148,-1.6141,-1.6173,-1.6211,-1.625,-1.63,-1.6341,-1.6426,-1.6438,-1.6483,-1.6475,-1.6539,-1.6482,-1.6484,-1.6478,-1.6475,-1.6481,-1.6551,-1.6553,-1.6555,-1.6556,0,-1.6092,-1.609,-1.6134,-1.6178,-1.6213,-1.6248,-1.6279,-1.6305,-1.6302,-1.6339,-1.6392,-1.6423,-1.6484,-1.6535,-1.6579,-1.6595,-1.6576,-1.6573,-1.659,-1.6595,-1.6594,-1.6596,-1.6401,-1.657,-1.6568,-1.6567,-1.6567,-1.6566,-1.6203,-1.6247,-1.6274,-1.6323,-1.6346,-1.6376,-1.6418,-1.6428,-1.6472,-1.6521,-1.6514,-1.6574,-1.6602,-1.6659,-1.6679,-1.6725,-1.6703,-1.6726,-1.6732,-1.6739,-1.6746,-1.6585,-1.6733,-1.6733,-1.6732,-1.6732,-1.6732,0,-1.6354,-1.637,-1.6415,-1.646,-1.6498,-1.6475,-1.6509,-1.6543,-1.6595,-1.6623,-1.6662,-1.6723,-1.6772,-1.6786,-1.6833,-1.6867,-1.686,-1.688,-1.6878,-1.6883,-1.6762,-1.6744,-1.6886,-1.6886,-1.6885,-1.6885,-1.6885,-1.6885,-1.6438,-1.6512,-1.6513,-1.6597,-1.6613,-1.667,-1.6692,-1.6719,-1.6741,-1.681,-1.685,-1.6859,-1.6881,-1.6929,-1.6973,-1.6975,-1.6994,-1.7019,-1.7019,-1.6906,-1.6891,-1.6876,-1.6859,-1.7023,-1.7023,-1.7135,-1.7136,-1.7137]},{"header":{"parameterUnit":"m.s-1","parameterCategory":1,"la1":30.2991,"la2":30.254,"lo1":-89.0895,"lo2":-89.0444,"dy":0.0017,"dx":0.0017,"nx":28,"ny":28,"refTime":"2024-02-17T09:00:00:Z","depth":0,"parameterNumber":3,"parameterNumberName":"V-component_of_WINDS"},"data":[0,0,0,0,0,0,0,0,0,0,0,0,0,0,0,0,0,0,0,0,0,0,0,0,0,0,0,0,0,0,0,0,0,0,0,0,0,0,0,0,0,0,0,0,0,0,0,0,0,0,0,0,0,0,0,0,0,0,-6.7037,-6.7038,0,-6.7125,-6.7126,-6.7127,-6.7038,-6.7034,-6.7031,-6.7027,-6.7114,-6.7119,-6.7125,0,0,0,0,0,0,0,0,0,0,0,0,0,-6.6784,-6.6789,-6.7036,-6.7038,-6.7039,-6.7125,-6.7126,-6.7128,-6.7038,-6.7034,-6.703,-6.7026,-6.7112,-6.7119,-6.7125,0,0,0,0,0,0,0,0,0,0,0,0,0,-6.6885,-6.679,-6.7036,-6.7005,-6.7003,-6.7125,-6.7127,-6.7128,-6.7039,-6.7034,-6.7029,-6.7024,-6.711,-6.7118,-6.7126,-6.7283,0,0,-6.7152,-6.7155,0,0,0,0,0,0,0,0,-6.6879,-6.6894,-6.7008,-6.7007,-6.7005,-6.7065,-6.7069,-6.718,-6.7041,-6.7025,-6.7027,-6.7021,-6.7102,-6.711,-6.7138,-6.7287,-6.729,-6.7152,-6.7157,-6.7161,-6.7163,0,0,0,0,0,0,0,-6.6872,-6.689,-6.7071,-6.701,-6.7008,-6.6984,-6.6993,-6.7089,-6.7092,-6.7026,-6.702,-6.7032,-6.71,-6.7131,-6.714,-6.7292,-6.7152,-6.716,-6.7165,-6.7168,-6.757,-6.7576,0,0,0,0,0,0,-6.687,-6.6885,-6.7069,-6.7074,-6.6928,-6.6993,-6.7003,-6.7051,-6.709,-6.7091,-6.7036,-6.7027,-6.7119,-6.713,-6.7142,-6.7327,-6.7161,-6.7169,-6.7174,-6.7565,-6.7572,-6.7578,0,0,0,0,0,0,-6.6865,-6.6887,-6.7065,-6.6978,-6.6999,-6.7003,-6.7058,-6.7056,-6.7086,-6.7098,-6.7097,-6.7068,-6.7115,-6.7131,-6.7248,-6.7329,-6.7173,-6.718,-6.7558,-6.7567,-6.7575,-6.7699,0,0,0,0,0,0,-6.6858,-6.6886,-6.6947,-6.698,-6.7004,-6.7172,-6.7063,-6.7061,-6.7102,-6.7091,-6.7127,-6.7128,-6.7112,-6.7236,-6.7257,-6.7337,-6.7187,-6.7551,-6.7562,-6.7572,-6.7687,-6.771,-6.773,0,0,0,0,0,-6.6849,-6.6977,-6.695,-6.6973,-6.708,-6.7177,-6.719,-6.717,-6.7109,-6.7169,-6.7176,-6.7127,-6.7317,-6.7249,-6.7271,-6.7356,-6.7546,-6.7559,-6.7571,-6.7678,-6.7706,-6.7729,0,0,0,0,0,0,-6.6952,-6.6981,-6.6951,-6.7095,-6.7134,-6.7161,-6.7237,-6.7201,-6.7257,-6.7244,-6.7216,-6.7225,-6.7349,-6.7364,-6.7288,-6.7508,-6.7421,-6.7439,-6.7494,-6.7521,-6.7542,-6.7536,-6.7194,0,0,0,0,0,-6.6992,-6.7069,-6.7089,-6.7214,-6.7235,-6.7233,-6.7274,-6.7255,-6.7294,-6.731,-6.7326,-6.7364,-6.7432,-6.7477,-6.754,-6.7689,-6.7694,-6.7758,-6.7779,-6.7796,-6.7812,-6.789,-6.7918,-6.762,-6.762,-6.762,0,0,-6.7074,-6.7099,-6.715,-6.7235,-6.7263,-6.7342,-6.7247,-6.7335,-6.7393,-6.7323,-6.7435,-6.7448,-6.7488,-6.7622,-6.7681,-6.7638,-6.7895,-6.7813,-6.7827,-6.7833,-6.7906,-6.7934,-6.7959,-6.7629,-6.7627,-6.7626,0,0,-6.7264,-6.7292,-6.7398,-6.7428,-6.7472,-6.747,-6.7495,-6.7528,-6.7535,-6.7647,-6.7596,-6.7663,-6.7781,-6.7811,-6.7843,-6.8043,-6.8,-6.8064,-6.8176,-6.8252,-6.8275,-6.8296,-6.8367,-6.8392,-6.808,-6.808,-6.808,0,-6.736,-6.7479,-6.7456,-6.7548,-6.7586,-6.7528,-6.7634,-6.7663,-6.7726,-6.7753,-6.7703,-6.785,-6.7873,-6.8012,-6.8061,-6.8088,-6.8115,-6.806,-6.8274,-6.8295,-6.8314,-6.838,-6.8407,-6.8088,-6.8087,-6.8086,-6.8085,0,-6.7594,-6.7677,-6.7757,-6.782,-6.7867,-6.7966,-6.7956,-6.8006,-6.7983,-6.7985,-6.81,-6.8125,-6.8192,-6.8224,-6.8201,-6.836,-6.8331,-6.8279,-6.819,-6.835,-6.8412,-6.8438,-6.8098,-6.8096,-6.8093,-6.8092,0,0,-6.7852,-6.7901,-6.7931,-6.7958,-6.8003,-6.8065,-6.816,-6.8227,-6.827,-6.8314,-6.8391,-6.8492,-6.8444,-6.8479,-6.8459,-6.8527,-6.8683,-6.8466,-6.8466,-6.8504,-6.8857,-6.8896,-6.8926,-6.8654,-6.8659,-6.8663,-6.8853,0,-6.8043,-6.821,-6.8192,-6.8349,-6.8425,-6.8369,-6.8451,-6.8486,-6.849,-6.8553,-6.8556,-6.8628,-6.8559,-6.858,-6.8644,-6.865,-6.8753,-6.8636,-6.8724,-6.8728,-6.8716,-6.8958,-6.9,-6.9179,-6.8877,-6.8881,-6.8884,0,-6.8288,-6.8343,-6.8509,-6.854,-6.8571,-6.8646,-6.8704,-6.8766,-6.8803,-6.8801,-6.8841,-6.8809,-6.8902,-6.8812,-6.8938,-6.886,-6.8894,-6.8902,-6.8909,-6.8916,-6.8816,-6.8971,-6.9235,-6.9262,-6.8923,-6.892,-6.8917,0,-6.8459,-6.8574,-6.8687,-6.8712,-6.8752,-6.8806,-6.8824,-6.8857,-6.8898,-6.8948,-6.8974,-6.9035,-6.9068,-6.9114,-6.9099,-6.9035,-6.9228,-6.9137,-6.9228,-6.9229,-6.9271,-6.9269,-6.9543,-6.9295,-6.9294,-6.9294,-6.9293,0,-6.8674,-6.8777,-6.8765,-6.8835,-6.8948,-6.8925,-6.9037,-6.9049,-6.9078,-6.9147,-6.9102,-6.9168,-6.9144,-6.9208,-6.9197,-6.9302,-6.9318,-6.9317,-6.9313,-6.9321,-6.9321,-6.9343,-6.933,-6.9301,-6.9299,-6.9298,-6.9297,0,-6.8884,-6.888,-6.9,-6.9028,-6.9037,-6.912,-6.9142,-6.9207,-6.9207,-6.9296,-6.9315,-6.9315,-6.9388,-6.9377,-6.9458,-6.9449,-6.9581,-6.9562,-6.9569,-6.9565,-6.9656,-6.9647,-6.9954,-6.9992,-6.9719,-6.9722,-6.9724,0,-6.9021,-6.91,-6.9136,-6.918,-6.9203,-6.9275,-6.9316,-6.9296,-6.9341,-6.9389,-6.9447,-6.9516,-6.9571,-6.9689,-6.9695,-6.9756,-6.9737,-6.984,-6.9746,-6.9751,-6.9738,-6.9733,-6.974,-6.9859,-6.9862,-6.9865,-6.9867,0,-6.9265,-6.9259,-6.9322,-6.9384,-6.9435,-6.9483,-6.9525,-6.9563,-6.9546,-6.9599,-6.9673,-6.9716,-6.9798,-6.9866,-6.9923,-6.994,-6.9901,-6.9896,-6.992,-6.993,-6.9931,-6.993,-6.962,-6.9889,-6.9887,-6.9886,-6.9884,-6.9883,-6.9442,-6.9509,-6.9545,-6.9616,-6.9646,-6.9687,-6.9749,-6.9757,-6.9819,-6.9886,-6.9869,-6.9954,-6.9987,-7.0059,-7.0082,-7.0146,-7.0108,-7.0143,-7.0152,-7.0161,-7.0171,-6.9921,-7.0157,-7.0156,-7.0155,-7.0155,-7.0154,0,-6.9683,-6.9704,-6.9769,-6.9831,-6.9886,-6.9845,-6.989,-6.9938,-7.0013,-7.0049,-7.0103,-7.0188,-7.0254,-7.0265,-7.0327,-7.0376,-7.0359,-7.0393,-7.0388,-7.0393,-7.0202,-7.0175,-7.0405,-7.0405,-7.0405,-7.0405,-7.0405,-7.0405,-6.9815,-6.9926,-6.9924,-7.0047,-7.0066,-7.015,-7.0178,-7.0215,-7.0243,-7.034,-7.0395,-7.0402,-7.0427,-7.0491,-7.0548,-7.055,-7.0574,-7.0615,-7.0609,-7.0431,-7.0406,-7.0382,-7.0357,-7.0621,-7.0621,-7.0794,-7.0795,-7.0797]}]]